Regional Weather Roundup
Issued by NWS

Home | Current Version | Previous Version | Text Only | Print | Product List | Glossary Off
Versions: 1 2 3 4 5 6 7 8 9 10 11 12 13 14 15 16 17 18 19 20 21 22 23 24 25 26 27 28 29 30 31 32 33 34 35 36 37 38 39 40 41 42 43 44 45 46 47 48 49 50

000
ASUS43 KFSD 221510
RWRSD

WEATHER ROUNDUP FOR SOUTH DAKOTA
NATIONAL WEATHER SERVICE SIOUX FALLS SD
900 AM CST WED FEB 22 2017

NOTE: "FAIR" INDICATES FEW OR NO CLOUDS BELOW 12,000 FEET WITH NO
SIGNIFICANT WEATHER AND/OR OBSTRUCTIONS TO VISIBILITY.


SDZ001>005-009-010-012>017-221600-
NORTHWEST AND NORTH CENTRAL SOUTH DAKOTA

CITY           SKY/WX    TMP DP  RH WIND       PRES   REMARKS
BUFFALO          N/A     36  34  92 NW8       29.67R
FAITH            N/A     37  36  96 W6        29.72R
MOBRIDGE       PTSUNNY   37  33  85 N8        29.65S
$$

SDZ012>016-024>037-041>051-057-063-072>074-221600-
SOUTHWEST AND SOUTH CENTRAL SOUTH DAKOTA

CITY           SKY/WX    TMP DP  RH WIND       PRES   REMARKS
RAPID CTY ARPT MOSUNNY   47  28  47 W20       29.75R
PIERRE         MOSUNNY   45  35  68 NW20      29.67R
CUSTER         MOSUNNY   36  22  56 W12       29.78R
ELLSWORTH AFB  PTSUNNY   47  27  45 W17       29.75R
PHILIP         PTSUNNY   47  37  68 NW9       29.74R
PINE RIDGE     MOSUNNY   47  30  51 W14G21    29.79R
SPEARFISH      FAIR      43  25  49 W10       29.78R
WINNER         FAIR      52  37  56 W17       29.68S
$$

SDZ004>011-016>023-039-040-221600-
NORTHEAST SOUTH DAKOTA

CITY           SKY/WX    TMP DP  RH WIND       PRES   REMARKS
ABERDEEN       PTSUNNY   37  33  85 NE12      29.63F
WATERTOWN      MOSUNNY   41  39  93 NE3       29.59F
BROOKINGS      MOSUNNY   42  38  85 E3        29.58R
SISSETON         N/A     37  37 100 N13       29.63R
$$

SDZ017-020-022-023-036>040-048>070-221600-
SOUTHEAST SOUTH DAKOTA

CITY           SKY/WX    TMP DP  RH WIND       PRES   REMARKS
SIOUX FALLS    PTSUNNY   48  40  73 SE6       29.61F
HURON          SUNNY     42  39  89 W6        29.62S
CHAMBERLAIN    SUNNY     50  41  70 W13       29.67S
MITCHELL       MOSUNNY   48  40  73 W8        29.65R
YANKTON        SUNNY     48  36  61 SW5       29.64F
$$

ABBREVIATIONS USED IN REMARKS
   TC - TEMPERATURE IN CELSIUS
  WCI - WIND CHILL INDEX
   HX - HEAT INDEX
  VSB - VISIBILITY





USA.gov is the U.S. government's official web portal to all federal, state and local government web resources and services.